W5HRH Weather Reports


Display with metric or nautical units.
time (UTC)temp
F
wind
direction
speed
MPH
gust
MPH
rain 1hr
in
rain 24hr
in
rain mn
in
humidity
%
barometer
mb
20260902130552 80 227 0.0 4.0 0.00 0.00 0.00 91 1016.7
20260902130057 80 227 0.0 4.0 0.00 0.00 0.00 91 1016.6
20260902125552 80 209 0.0 4.0 0.00 0.00 0.00 91 1016.7
20260902125154 80 208 0.0 4.0 0.00 0.00 0.00 91 1016.5
20260902124551 80 190 0.0 3.0 0.00 0.00 0.00 91 1016.6
20260902124052 80 216 0.0 3.0 0.00 0.00 0.00 91 1016.4
20260902123551 80 205 0.0 0.0 0.00 0.00 0.00 91 1016.2
20260902123052 80 204 0.0 0.0 0.00 0.00 0.00 91 1016.0
20260902122548 80 209 0.0 0.0 0.00 0.00 0.00 91 1015.8
20260902122047 80 209 0.0 0.0 0.00 0.00 0.00 91 1015.6
20260902121547 80 211 0.0 0.0 0.00 0.00 0.00 91 1015.5
20260902121047 80 209 0.0 3.0 0.00 0.00 0.00 91 1015.4
20260902120547 80 225 0.0 3.0 0.00 0.00 0.00 91 1015.4
20260902120049 80 234 0.0 2.0 0.00 0.00 0.00 91 1015.3
20260902115545 80 234 0.0 3.0 0.00 0.00 0.00 91 1015.4
20260902115046 80 219 0.0 3.0 0.00 0.00 0.00 91 1015.4
20260902114550 80 209 1.0 3.0 0.00 0.00 0.00 91 1015.4
20260902114046 80 208 0.0 4.0 0.00 0.00 0.00 90 1015.3
20260902113545 80 221 0.0 4.0 0.00 0.00 0.00 90 1015.3
20260902113051 80 223 0.0 3.0 0.00 0.00 0.00 90 1015.3
20260902112545 80 192 0.0 3.0 0.00 0.00 0.00 90 1015.4
20260902112045 80 212 0.0 0.0 0.00 0.00 0.00 90 1015.3
20260902111547 80 229 0.0 0.0 0.00 0.00 0.00 90 1015.2
20260902111044 80 225 0.0 0.0 0.00 0.00 0.00 90 1015.3
20260902110545 80 229 0.0 0.0 0.00 0.00 0.00 90 1015.4
20260902110044 80 275 0.0 0.0 0.00 0.00 0.00 90 1015.3
20260902105546 80 229 0.0 0.0 0.00 0.00 0.00 90 1015.4
20260902105043 80 211 0.0 0.0 0.00 0.00 0.00 89 1015.4
20260902104545 80 209 0.0 0.0 0.00 0.00 0.00 89 1015.5
20260902104043 80 211 0.0 0.0 0.00 0.00 0.00 89 1015.5
20260902103543 80 211 0.0 0.0 0.00 0.00 0.00 89 1015.6
20260902103043 81 210 0.0 0.0 0.00 0.00 0.00 89 1015.5
20260902102543 80 209 0.0 0.0 0.00 0.00 0.00 89 1015.5
20260902102042 80 209 0.0 0.0 0.00 0.00 0.00 89 1015.5
20260902101541 81 211 0.0 0.0 0.00 0.00 0.00 89 1015.5
20260902101041 81 238 0.0 0.0 0.00 0.00 0.00 89 1015.3
20260902100541 81 238 0.0 0.0 0.00 0.00 0.00 88 1015.2
20260902100041 81 238 0.0 0.0 0.00 0.00 0.00 88 1015.2
20260902095541 81 238 0.0 3.0 0.00 0.00 0.00 88 1015.2
20260902095040 81 239 0.0 3.0 0.00 0.00 0.00 88 1015.2
20260902094540 81 211 0.0 3.0 0.00 0.00 0.00 88 1015.2
20260902094041 81 211 0.0 3.0 0.00 0.00 0.00 88 1015.2
20260902093541 81 225 0.0 3.0 0.00 0.00 0.00 88 1015.4
20260902093040 81 211 0.0 2.0 0.00 0.00 0.00 87 1015.3
20260902092540 81 211 0.0 2.0 0.00 0.00 0.00 87 1015.3
20260902092042 81 208 0.0 2.0 0.00 0.00 0.00 87 1015.3
20260902091549 81 208 0.0 2.0 0.00 0.00 0.00 87 1015.2
20260902091038 81 208 0.0 3.0 0.00 0.00 0.00 87 1015.2
20260902090538 81 205 0.0 2.0 0.00 0.00 0.00 87 1015.3
20260902090038 81 205 0.0 3.0 0.00 0.00 0.00 87 1015.2
20260902085537 81 199 0.0 3.0 0.00 0.00 0.00 86 1015.2
20260902085037 81 186 0.0 1.0 0.00 0.00 0.00 86 1015.2
20260902084538 81 186 0.0 2.0 0.00 0.00 0.00 86 1015.3
20260902084037 81 185 0.0 2.0 0.00 0.00 0.00 86 1015.3
20260902083537 81 184 0.0 2.0 0.00 0.00 0.00 86 1015.4
20260902083037 81 182 0.0 2.0 0.00 0.00 0.00 86 1015.4
20260902082537 81 182 0.0 2.0 0.00 0.00 0.00 86 1015.3
20260902082038 81 183 0.0 1.0 0.00 0.00 0.00 85 1015.3
20260902081536 81 183 0.0 1.0 0.00 0.00 0.00 85 1015.2
20260902081036 81 182 0.0 1.0 0.00 0.00 0.00 85 1015.4
20260902080535 81 179 0.0 1.0 0.00 0.00 0.00 85 1015.3
20260902080035 82 173 0.0 2.0 0.00 0.00 0.00 85 1015.4
20260902075537 81 231 0.0 1.0 0.00 0.00 0.00 85 1015.3
20260902075035 81 231 0.0 3.0 0.00 0.00 0.00 85 1015.3
20260902074535 81 234 0.0 3.0 0.00 0.00 0.00 85 1015.3
20260902074034 81 221 0.0 1.0 0.00 0.00 0.00 85 1015.4
20260902073533 81 220 0.0 1.0 0.00 0.00 0.00 85 1015.4
20260902073037 82 220 0.0 2.0 0.00 0.00 0.00 85 1015.6
20260902072532 81 220 0.0 2.0 0.00 0.00 0.00 85 1015.6
20260902072037 81 220 0.0 1.0 0.00 0.00 0.00 85 1015.6
20260902071531 81 221 0.0 1.0 0.00 0.00 0.00 85 1015.4
20260902071030 80 331 0.0 1.0 0.00 0.00 0.00 84 1015.4
20260902070531 80 328 0.0 1.0 0.00 0.00 0.00 83 1015.5
20260902070029 80 328 0.0 0.0 0.00 0.00 0.00 82 1015.4
20260902065528 80 328 0.0 0.0 0.00 0.00 0.00 82 1015.4
20260902065028 80 328 0.0 0.0 0.00 0.00 0.00 82 1015.4
20260902064528 80 328 0.0 0.0 0.00 0.00 0.00 82 1015.4
20260902064027 80 328 0.0 0.0 0.00 0.00 0.00 82 1015.4
20260902063527 80 328 0.0 0.0 0.00 0.00 0.00 82 1015.4
20260902063029 80 328 0.0 0.0 0.00 0.00 0.00 81 1015.5
20260902062528 80 328 0.0 0.0 0.00 0.00 0.00 81 1015.3
20260902062026 80 328 0.0 0.0 0.00 0.00 0.00 81 1015.3
20260902061541 80 328 0.0 0.0 0.00 0.00 0.00 81 1015.2
20260902061032 80 328 0.0 0.0 0.00 0.00 0.00 81 1015.2
20260902060525 80 328 0.0 0.0 0.00 0.00 0.00 81 1015.2
20260902060024 80 328 0.0 0.0 0.00 0.00 0.00 81 1015.2
20260902055525 80 328 0.0 0.0 0.00 0.00 0.00 81 1015.2
20260902055025 80 328 0.0 0.0 0.00 0.00 0.00 81 1015.2
20260902054526 80 328 0.0 0.0 0.00 0.00 0.00 81 1015.2
20260902054024 80 328 0.0 0.0 0.00 0.00 0.00 81 1015.2
20260902053527 80 328 0.0 1.0 0.00 0.00 0.00 81 1015.0
20260902053024 80 328 0.0 1.0 0.00 0.00 0.00 81 1015.0
20260902052522 80 328 0.0 0.0 0.00 0.00 0.00 81 1015.3
20260902052022 80 328 0.0 0.0 0.00 0.00 0.00 81 1015.2
20260902051521 80 328 0.0 0.0 0.00 0.00 0.00 81 1015.2
20260902051020 80 328 0.0 0.0 0.00 0.00 0.00 81 1015.3
20260902050521 80 328 0.0 0.0 0.00 0.00 0.00 81 1015.4
20260902050022 80 328 0.0 0.0 0.00 0.00 0.00 81 1015.4
20260902045520 80 329 0.0 0.0 0.00 0.00 0.00 82 1015.4
20260902045022 80 329 0.0 0.0 0.00 0.00 0.00 82 1015.4
20260902044519 80 329 0.0 0.0 0.00 0.00 0.00 82 1015.5
20260902044023 80 329 0.0 0.0 0.00 0.00 0.00 81 1015.5
20260902043518 80 329 0.0 0.0 0.00 0.00 0.00 81 1015.5
20260902043024 80 329 0.0 0.0 0.00 0.00 0.00 81 1015.6
20260902042521 80 329 0.0 0.0 0.00 0.00 0.00 81 1015.6
20260902042017 80 329 0.0 0.0 0.00 0.00 0.00 81 1015.7
20260902041518 80 329 0.0 0.0 0.00 0.00 0.00 81 1015.6
20260902041017 81 329 0.0 0.0 0.00 0.00 0.00 81 1015.6
20260902040517 81 329 0.0 0.0 0.00 0.00 0.00 81 1015.6
20260902040017 81 329 0.0 0.0 0.00 0.00 0.00 81 1015.6
20260902035516 81 329 0.0 0.0 0.00 0.00 0.00 81 1015.5
20260902035019 81 329 0.0 0.0 0.00 0.00 0.00 81 1015.6
20260902034519 81 329 0.0 0.0 0.00 0.00 0.00 81 1015.6
20260902034025 81 329 0.0 0.0 0.00 0.00 0.00 81 1015.6
20260902033516 81 329 0.0 0.0 0.00 0.00 0.00 81 1015.6
20260902033041 81 329 0.0 0.0 0.00 0.00 0.00 81 1015.7
20260902032517 81 329 0.0 0.0 0.00 0.00 0.00 81 1015.6
20260902032016 81 329 0.0 0.0 0.00 0.00 0.00 81 1015.6
20260902031516 81 329 0.0 0.0 0.00 0.00 0.00 81 1015.6
20260902031017 81 329 0.0 0.0 0.00 0.00 0.00 81 1015.4
20260902030515 81 329 0.0 0.0 0.00 0.00 0.00 81 1015.3
20260902030021 81 329 0.0 0.0 0.00 0.00 0.00 81 1015.2
20260902025517 81 329 0.0 0.0 0.00 0.00 0.00 80 1015.1
20260902025016 81 329 0.0 0.0 0.00 0.00 0.00 80 1015.0
20260902024518 81 329 0.0 0.0 0.00 0.00 0.00 80 1015.0
20260902024015 82 329 0.0 0.0 0.00 0.00 0.00 80 1014.9
20260902023515 82 329 0.0 0.0 0.00 0.00 0.00 80 1014.8
20260902023015 82 329 0.0 0.0 0.00 0.00 0.00 79 1014.8
20260902022515 82 329 0.0 0.0 0.00 0.00 0.00 79 1014.8
20260902022015 82 329 0.0 0.0 0.00 0.00 0.00 80 1014.7
20260902021523 82 329 0.0 0.0 0.00 0.00 0.00 80 1014.6
20260902021014 82 329 0.0 0.0 0.00 0.00 0.00 80 1014.5
20260902020513 82 329 0.0 0.0 0.00 0.00 0.00 79 1014.5
20260902020014 82 329 0.0 0.0 0.00 0.00 0.00 79 1014.5
20260902015513 82 329 0.0 0.0 0.00 0.00 0.00 79 1014.4
20260902015014 82 329 0.0 0.0 0.00 0.00 0.00 79 1014.2
20260902014514 82 329 0.0 2.0 0.00 0.00 0.00 79 1014.2
20260902014014 82 329 0.0 2.0 0.00 0.00 0.00 79 1014.0
20260902013513 82 328 0.0 2.0 0.00 0.00 0.00 79 1014.0
20260902013013 82 326 1.0 2.0 0.00 0.00 0.00 79 1014.2
20260902012512 82 311 0.0 3.0 0.00 0.00 0.00 78 1014.0
20260902012016 82 310 1.0 3.0 0.00 0.00 0.00 78 1014.0
20260902011512 82 55 0.0 2.0 0.00 0.00 0.00 79 1013.9
20260902011012 82 57 0.0 2.0 0.00 0.00 0.00 79 1014.0
20260902010512 82 57 0.0 2.0 0.00 0.00 0.00 79 1013.9
20260902010013 82 57 0.0 2.0 0.00 0.00 0.00 79 1013.9
20260902005517 82 57 0.0 2.0 0.00 0.00 0.00 79 1014.0
20260902005011 82 57 0.0 3.0 0.00 0.00 0.00 79 1013.9
20260902004517 82 58 1.0 3.0 0.00 0.00 0.00 79 1014.0
20260902004010 82 63 0.0 3.0 0.00 0.00 0.00 79 1014.0
20260902003510 82 65 0.0 3.0 0.00 0.00 0.00 79 1014.2
20260902003010 82 65 0.0 4.0 0.00 0.00 0.00 79 1014.2
20260902002510 82 55 1.0 4.0 0.00 0.00 0.00 79 1014.1
20260902002009 82 23 0.0 3.0 0.00 0.00 0.00 80 1014.1
20260902001509 82 17 0.0 3.0 0.00 0.00 0.00 80 1014.1
20260902001009 82 340 0.0 4.0 0.00 0.00 0.00 80 1014.1
20260902000509 82 360 1.0 6.0 0.00 0.00 0.00 79 1014.1
20260902000013 82 55 1.0 8.0 0.00 0.00 0.00 80 1014.1
20260901235509 82 51 2.0 8.0 0.00 0.00 0.00 79 1014.1
20260901235008 82 40 2.0 6.0 0.00 0.00 0.00 79 1014.1
20260901234508 82 28 2.0 5.0 0.00 0.00 0.00 80 1014.0
20260901234007 82 342 0.0 5.0 0.00 0.00 0.00 80 1014.0
20260901233508 82 38 1.0 8.0 0.00 0.00 0.00 80 1014.1
20260901233011 82 45 4.0 9.0 0.00 0.00 0.00 80 1014.2
20260901232506 82 17 3.0 9.0 0.00 0.00 0.00 80 1014.3
20260901232009 82 338 3.0 9.0 0.00 0.00 0.00 80 1014.4
20260901231504 82 28 3.0 9.0 0.00 0.00 0.00 81 1014.5
20260901231004 83 88 3.0 8.0 0.00 0.00 0.00 83 1014.5
20260901230504 83 40 3.0 8.0 0.00 0.00 0.00 83 1014.7
20260901230005 83 66 2.0 6.0 0.00 0.00 0.00 83 1014.6
20260901225504 83 85 2.0 10.0 0.00 0.00 0.00 83 1014.7
20260901225004 83 90 3.0 11.0 0.00 0.00 0.00 83 1014.8
20260901224513 83 109 4.0 10.0 0.00 0.00 0.00 83 1014.9
20260901224003 84 48 3.0 10.0 0.00 0.00 0.00 83 1014.9
20260901223503 84 49 2.0 6.0 0.00 0.00 0.00 83 1014.7
20260901223004 85 67 3.0 6.0 0.00 0.00 0.00 84 1014.7
20260901222503 85 92 0.0 3.0 0.00 0.00 0.00 82 1014.5
20260901222004 85 92 0.0 3.0 0.00 0.00 0.00 81 1014.5
20260901221502 86 82 0.0 6.0 0.00 0.00 0.00 80 1014.5
20260901221002 86 73 0.0 6.0 0.00 0.00 0.00 78 1014.4
20260901220503 87 95 0.0 3.0 0.00 0.00 0.00 78 1014.5
20260901220001 87 93 1.0 4.0 0.00 0.00 0.00 75 1014.7
20260901215501 88 97 1.0 4.0 0.00 0.00 0.00 72 1014.7
20260901215101 88 55 1.0 3.0 0.00 0.00 0.00 71 1014.7
20260901214500 88 68 1.0 3.0 0.00 0.00 0.00 71 1014.8
20260901214100 89 67 1.0 3.0 0.00 0.00 0.00 70 1015.0
20260901213600 89 46 0.0 4.0 0.00 0.00 0.00 70 1015.0
20260901213100 89 48 1.0 4.0 0.00 0.00 0.00 69 1015.0
20260901212600 89 69 0.0 3.0 0.00 0.00 0.00 69 1015.0
20260901212059 89 68 0.0 3.0 0.00 0.00 0.00 69 1014.9
20260901211559 89 70 0.0 4.0 0.00 0.00 0.00 68 1014.8
20260901211059 89 36 2.0 4.0 0.00 0.00 0.00 68 1014.8
20260901210558 88 29 0.0 4.0 0.00 0.00 0.00 69 1014.7
20260901210058 88 19 2.0 4.0 0.00 0.00 0.00 68 1014.6
20260901205556 88 53 0.0 8.0 0.00 0.00 0.00 68 1014.7
20260901205057 88 360 0.0 8.0 0.00 0.00 0.00 68 1014.6
20260901204557 88 329 1.0 4.0 0.00 0.00 0.00 69 1014.5
20260901204057 88 321 0.0 5.0 0.00 0.00 0.00 70 1014.5
20260901203556 87 313 2.0 5.0 0.00 0.00 0.00 69 1014.5
20260901203103 87 342 0.0 4.0 0.00 0.00 0.00 70 1014.5
20260901202556 87 342 1.0 4.0 0.00 0.00 0.00 70 1014.6
20260901202101 87 340 0.0 3.0 0.00 0.00 0.00 70 1014.6
20260901201553 87 360 1.0 4.0 0.00 0.00 0.00 70 1014.8
20260901201052 87 17 1.0 4.0 0.00 0.00 0.00 69 1015.2
20260901200551 87 303 1.0 5.0 0.00 0.00 0.00 69 1015.3
20260901200106 87 313 0.0 5.0 0.00 0.00 0.00 69 1015.5
20260901195553 88 34 2.0 5.0 0.00 0.00 0.00 69 1015.7
20260901195052 88 63 1.0 6.0 0.00 0.00 0.00 69 1015.8
20260901194558 88 22 1.0 6.0 0.00 0.00 0.00 67 1016.0
20260901194048 88 14 2.0 7.0 0.00 0.00 0.00 67 1016.0
20260901193548 88 347 2.0 4.0 0.00 0.00 0.00 69 1016.0
20260901193054 88 77 1.0 5.0 0.00 0.00 0.00 68 1016.0
20260901192547 88 88 2.0 5.0 0.00 0.00 0.00 69 1016.0
20260901192046 88 24 1.0 5.0 0.00 0.00 0.00 69 1015.9
20260901191546 88 350 2.0 5.0 0.00 0.00 0.00 69 1015.8
20260901191045 88 65 2.0 5.0 0.00 0.00 0.00 69 1015.9
20260901190545 88 23 3.0 5.0 0.00 0.00 0.00 69 1016.0
20260901190052 88 11 0.0 4.0 0.00 0.00 0.00 69 1016.0
20260901185545 88 342 1.0 4.0 0.00 0.00 0.00 70 1016.0
20260901185043 88 58 2.0 5.0 0.00 0.00 0.00 69 1016.0
20260901184548 88 62 1.0 5.0 0.00 0.00 0.00 70 1016.0
20260901184042 88 120 1.0 6.0 0.00 0.00 0.00 70 1016.0
20260901183543 88 26 2.0 6.0 0.00 0.00 0.00 70 1016.0
20260901183041 88 346 3.0 5.0 0.00 0.00 0.00 70 1016.0
20260901182543 88 328 2.0 5.0 0.00 0.00 0.00 70 1016.0
20260901182040 88 55 1.0 8.0 0.00 0.00 0.00 70 1016.0
20260901181541 88 81 3.0 8.0 0.00 0.00 0.00 70 1016.1
20260901181038 88 5 1.0 5.0 0.00 0.00 0.00 70 1016.1
20260901180537 88 69 2.0 10.0 0.00 0.00 0.00 69 1016.2
20260901180036 87 23 3.0 10.0 0.00 0.00 0.00 71 1016.3
20260901175538 88 327 2.0 9.0 0.00 0.00 0.00 71 1016.5
20260901175034 87 342 1.0 8.0 0.00 0.00 0.00 71 1016.5
20260901174539 87 15 4.0 8.0 0.00 0.00 0.00 71 1016.7
20260901174032 87 27 4.0 6.0 0.00 0.00 0.00 71 1016.9
20260901173531 87 319 2.0 6.0 0.00 0.00 0.00 71 1016.9
20260901173034 87 334 3.0 6.0 0.00 0.00 0.00 71 1017.2
20260901172529 87 329 1.0 5.0 0.00 0.00 0.00 71 1017.1
20260901172028 87 35 2.0 5.0 0.00 0.00 0.00 72 1017.2
20260901171527 87 26 2.0 5.0 0.00 0.00 0.00 72 1017.5
20260901171025 87 69 2.0 4.0 0.00 0.00 0.00 72 1017.4
20260901170524 86 65 1.0 6.0 0.00 0.00 0.00 73 1017.5
20260901170023 87 54 2.0 8.0 0.00 0.00 0.00 73 1017.6
20260901165525 86 36 2.0 5.0 0.00 0.00 0.00 73 1017.7
20260901165025 86 32 3.0 5.0 0.00 0.00 0.00 74 1017.8
20260901164522 86 5 2.0 5.0 0.00 0.00 0.00 74 1017.8
20260901164021 86 348 2.0 5.0 0.00 0.00 0.00 74 1017.9
20260901163521 86 348 2.0 9.0 0.00 0.00 0.00 74 1017.9
20260901163021 86 56 2.0 9.0 0.00 0.00 0.00 74 1017.8
20260901162521 86 343 3.0 12.0 0.00 0.00 0.00 73 1017.8
20260901162020 86 355 3.0 12.0 0.00 0.00 0.00 73 1017.7
20260901161520 86 328 3.0 9.0 0.00 0.00 0.00 74 1017.6
20260901161019 86 344 2.0 6.0 0.00 0.00 0.00 76 1017.6
20260901160519 86 5 2.0 9.0 0.00 0.00 0.00 76 1017.6
20260901160018 85 9 3.0 8.0 0.00 0.00 0.00 77 1017.5
20260901155518 85 321 2.0 9.0 0.00 0.00 0.00 78 1017.5
20260901155019 85 5 3.0 9.0 0.00 0.00 0.00 78 1017.4
20260901154517 85 320 3.0 11.0 0.00 0.00 0.00 78 1017.4
20260901154017 85 355 5.0 11.0 0.00 0.00 0.00 77 1017.4
20260901153519 85 55 2.0 8.0 0.00 0.00 0.00 78 1017.5
20260901153016 85 25 3.0 8.0 0.00 0.00 0.00 78 1017.3
20260901152515 85 345 3.0 8.0 0.00 0.00 0.00 78 1017.4
20260901152015 85 14 4.0 8.0 0.00 0.00 0.00 78 1017.4
20260901151524 85 349 3.0 9.0 0.00 0.00 0.00 78 1017.5
20260901151014 85 19 2.0 9.0 0.00 0.00 0.00 78 1017.5
20260901150512 85 89 3.0 9.0 0.00 0.00 0.00 78 1017.5
20260901150014 85 336 3.0 8.0 0.00 0.00 0.00 78 1017.4
20260901145510 85 17 2.0 5.0 0.00 0.00 0.00 78 1017.6
20260901145008 85 15 2.0 6.0 0.00 0.00 0.00 78 1017.4
20260901144515 85 69 2.0 8.0 0.00 0.00 0.00 78 1017.5
20260901144007 85 58 2.0 6.0 0.00 0.00 0.00 78 1017.5
20260901143506 85 329 2.0 6.0 0.00 0.00 0.00 78 1017.5
20260901143007 85 38 3.0 6.0 0.00 0.00 0.00 78 1017.7
20260901142507 85 22 0.0 4.0 0.00 0.00 0.00 79 1017.6
20260901142005 85 57 2.0 6.0 0.00 0.00 0.00 79 1017.6
20260901141504 85 61 3.0 6.0 0.00 0.00 0.00 79 1017.6
20260901141002 84 69 2.0 6.0 0.00 0.00 0.00 80 1017.6
20260901140502 84 314 2.0 6.0 0.00 0.00 0.00 81 1017.7
20260901140002 83 15 2.0 6.0 0.00 0.00 0.00 82 1017.7
20260901135604 83 30 2.0 6.0 0.00 0.00 0.00 83 1017.7
20260901135101 83 330 2.0 5.0 0.00 0.00 0.00 84 1017.7
20260901134600 82 64 0.0 5.0 0.00 0.00 0.00 84 1017.8
20260901134059 82 47 1.0 5.0 0.00 0.00 0.00 85 1018.0
20260901133558 82 17 0.0 4.0 0.00 0.00 0.00 85 1018.0
20260901133059 81 34 1.0 3.0 0.00 0.00 0.00 86 1017.9
20260901132557 81 19 1.0 3.0 0.00 0.00 0.00 86 1017.8
20260901132058 81 64 0.0 5.0 0.00 0.00 0.00 86 1017.8
20260901131555 81 36 1.0 4.0 0.00 0.00 0.00 87 1017.7
20260901131055 81 340 1.0 4.0 0.00 0.00 0.00 87 1017.6